Terug naar catalogus

DELTA 1 R/B(2)

ActiefHEO
NORAD 5977·ROCKET BODY·🇺🇸 United States

Gelanceerd Feb 6, 1969 vanaf Cape Canaveral Space Force Station

Loading…

Volgende Passages (komende 24 uur)

TLE

VersSource: Space-Track

Epoch: Sep 14, 2026, 04:43 UTC

1 05977U 69011B   26257.19672735  .00001412  00000-0  60257-3 0  9998
2 05977  29.6517 110.2731 5498599 223.5096  76.9002  4.74902568506966

Volg DELTA 1 R/B(2) in realtime met AllMySat

Download on the App Store